Overview Statistics Trail Chart Weather Telemetry Raw packets
 

This is the latest recevied weather packets stored in our database for station/object K0FJ-1. If no packets are shown the sender has not sent any weather packets the latest 10 day(s).

<< 44 45 46 47 48 49 50 >>
Time Temp. Humidity Pressure Rain* Wind** Luminosity Snow
1788380103 35.56° C 31% 1012.7 hPa 0 mm - - -
1788379803 35.56° C 31% 1012.7 hPa 0 mm - - -
1788379503 35.56° C 31% 1012.7 hPa 0 mm - - -
1788379219 35.56° C 34% 1012.9 hPa 0 mm - - -
1788378903 35.56° C 36% 1012.9 hPa 0 mm - - -
1788378603 35.56° C 35% 1013 hPa 0 mm - - -
1788378303 35.56° C 35% 1013.1 hPa 0 mm - - -
1788378003 35° C 36% 1013.1 hPa 0 mm - - -
1788377703 35° C 37% 1013.2 hPa 0 mm - - -
1788377403 34.44° C 38% 1013.3 hPa 0 mm - - -
1788377103 34.44° C 39% 1013.4 hPa 0 mm - - -
1788376803 33.89° C 39% 1013.4 hPa 0 mm - - -
1788376503 33.89° C 39% 1013.5 hPa 0 mm - - -
1788376203 33.89° C 39% 1013.6 hPa 0 mm - - -
1788375903 33.89° C 40% 1013.5 hPa 0 mm - - -
1788375603 33.89° C 40% 1013.6 hPa 0 mm - - -
1788375303 33.33° C 41% 1013.6 hPa 0 mm - - -
1788375003 33.33° C 41% 1013.6 hPa 0 mm - - -
1788374703 33.33° C 41% 1013.7 hPa 0 mm - - -
1788374403 32.78° C 42% 1013.9 hPa 0 mm - - -
1788374103 32.78° C 42% 1013.9 hPa 0 mm - - -
1788373803 32.78° C 44% 1013.9 hPa 0 mm - - -
1788373503 32.78° C 42% 1014.1 hPa 0 mm - - -
1788373203 32.78° C 43% 1014 hPa 0 mm - - -
1788372903 32.22° C 44% 1014.1 hPa 0 mm - - -

* Rain latest hour (hover to see other rain measurements)
** Current wind speed in m/s (hover to see current wind gust speed)